Location: Columbus
(35.2256°N, 82.1549°W)
Time: 00:49:42
(UTC-05:00)

Envisat - Pass Details

Date: 09 December 2021
Orbit: 764 x 766 km, 98.2° (Epoch: 25 January)

Event Time Altitude Azimuth Distance (km) Brightness Sun altitude
Rises 05:48:38 0° 6° (N) 3,236 6.2 -19.3°
Reaches altitude 10° 05:50:59 10° 2° (N) 2,306 5.3 -18.8°
Maximum altitude 05:55:54 52° 287° (WNW) 942 3.0 -17.8°
Drops below altitude 10° 06:00:48 10° 211° (SSW) 2,291 5.3 -16.9°
Sets 06:03:08 0° 207° (SSW) 3,213 6.1 -16.4°
